Вернуться в каталог

FENGYUN 1C DEB

АктивенSSO
NORAD 38116·DEBRIS·🇨🇳 China

Запущен May 10, 1999 с Taiyuan Satellite Launch Center

Loading…

Ближайшие Пролёты (ближайшие 24 часа)

TLE

СвежийSource: Space-Track

Эпоха: Sep 14, 2026, 08:41 UTC

1 38116U 99025EPM 26257.36223590  .00000351  00000-0  18937-3 0  9996
2 38116  98.6863 295.2093 0072009  76.9100 349.6647 14.17487217683897

Отслеживайте FENGYUN 1C DEB в реальном времени с AllMySat

Download on the App Store